| time (UTC) | temp C | wind direction | speed KPH | gust KPH | rain 1hr cm | rain 24hr cm | rain mn cm | humidity % | barometer mb |
| 20260831204023 | 15 | 277 | 4.8 | 16.1 | 0.00 | 0.00 | 0.00 | 87 | 1011.0 |
| 20260831202959 | 15 | 0 | 4.8 | 14.5 | 0.00 | 0.00 | 0.00 | 88 | 1011.0 |
| 20260831202444 | 14 | 261 | 4.8 | 12.9 | 0.00 | 0.00 | 0.00 | 88 | 1011.0 |
| 20260831201931 | 15 | 238 | 6.4 | 17.7 | 0.00 | 0.00 | 0.00 | 88 | 1011.0 |
| 20260831200905 | 15 | 275 | 4.8 | 17.7 | 0.00 | 0.00 | 0.00 | 88 | 1011.1 |
| 20260831200352 | 15 | 287 | 9.7 | 16.1 | 0.00 | 0.00 | 0.00 | 89 | 1011.1 |
| 20260831195839 | 14 | 236 | 9.7 | 14.5 | 0.00 | 0.00 | 0.00 | 88 | 1011.1 |
| 20260831194352 | 14 | 288 | 9.7 | 14.5 | 0.00 | 0.00 | 0.00 | 88 | 1011.0 |
| 20260831194300 | 14 | 288 | 9.7 | 14.5 | 0.00 | 0.00 | 0.00 | 88 | 1011.0 |
| 20260831193748 | 14 | 305 | 9.7 | 14.5 | 0.00 | 0.00 | 0.00 | 89 | 1011.0 |
| 20260831193234 | 14 | 310 | 6.4 | 14.5 | 0.00 | 0.00 | 0.00 | 89 | 1011.0 |
| 20260831192721 | 14 | 288 | 11.3 | 14.5 | 0.00 | 0.00 | 0.00 | 88 | 1010.9 |
| 20260831192208 | 15 | 284 | 11.3 | 12.9 | 0.00 | 0.00 | 0.00 | 88 | 1010.9 |
| 20260831191655 | 15 | 291 | 8.0 | 12.9 | 0.00 | 0.00 | 0.00 | 88 | 1010.8 |
| 20260831191142 | 16 | 305 | 9.7 | 12.9 | 0.00 | 0.00 | 0.00 | 88 | 1010.8 |
| 20260831190629 | 15 | 292 | 8.0 | 11.3 | 0.00 | 0.00 | 0.00 | 89 | 1010.8 |
| 20260831190116 | 15 | 295 | 9.7 | 11.3 | 0.00 | 0.00 | 0.00 | 89 | 1010.8 |
| 20260831185603 | 15 | 308 | 3.2 | 11.3 | 0.00 | 0.00 | 0.00 | 89 | 1010.9 |
| 20260831185050 | 15 | 287 | 8.0 | 9.7 | 0.00 | 0.00 | 0.00 | 89 | 1011.0 |
| 20260831184537 | 16 | 292 | 8.0 | 12.9 | 0.00 | 0.00 | 0.00 | 89 | 1011.0 |
| 20260831184024 | 16 | 298 | 8.0 | 12.9 | 0.00 | 0.00 | 0.00 | 89 | 1011.1 |
| 20260831183511 | 16 | 305 | 8.0 | 12.9 | 0.00 | 0.00 | 0.00 | 89 | 1011.1 |
| 20260831183000 | 16 | 285 | 0.0 | 11.3 | 0.00 | 0.00 | 0.00 | 91 | 1011.2 |
| 20260831182445 | 16 | 268 | 0.0 | 11.3 | 0.00 | 0.00 | 0.00 | 91 | 1011.2 |
| 20260831180353 | 15 | 303 | 6.4 | 9.7 | 0.00 | 0.00 | 0.00 | 92 | 1011.3 |
| 20260831175840 | 15 | 250 | 3.2 | 9.7 | 0.00 | 0.00 | 0.00 | 92 | 1011.3 |
| 20260831174814 | 15 | 280 | 0.0 | 8.0 | 0.00 | 0.00 | 0.00 | 92 | 1011.3 |
| 20260831174301 | 15 | 298 | 0.0 | 8.0 | 0.00 | 0.00 | 0.00 | 93 | 1011.3 |
| 20260831173748 | 14 | 0 | 0.0 | 8.0 | 0.00 | 0.00 | 0.00 | 93 | 1011.3 |
| 20260831173235 | 13 | 298 | 0.0 | 8.0 | 0.00 | 0.00 | 0.00 | 93 | 1011.3 |
| 20260831172722 | 13 | 294 | 4.8 | 8.0 | 0.00 | 0.00 | 0.00 | 93 | 1011.3 |
| 20260831172210 | 13 | 308 | 3.2 | 8.0 | 0.00 | 0.00 | 0.00 | 93 | 1011.2 |
| 20260831171656 | 13 | 0 | 0.0 | 0.0 | 0.00 | 0.00 | 0.00 | 94 | 1011.2 |
| 20260831171143 | 13 | 0 | 0.0 | 0.0 | 0.00 | 0.00 | 0.00 | 94 | 1011.2 |
| 20260831170630 | 13 | 0 | 0.0 | 0.0 | 0.00 | 0.00 | 0.00 | 94 | 1011.3 |
| 20260831170117 | 13 | 0 | 0.0 | 0.0 | 0.00 | 0.00 | 0.00 | 94 | 1011.2 |
| 20260831165604 | 13 | 0 | 0.0 | 0.0 | 0.00 | 0.00 | 0.00 | 94 | 1011.1 |
| 20260831165051 | 13 | 0 | 0.0 | 0.0 | 0.00 | 0.00 | 0.00 | 94 | 1011.2 |
| 20260831164538 | 12 | 0 | 0.0 | 0.0 | 0.00 | 0.00 | 0.00 | 94 | 1011.1 |
| 20260831164025 | 12 | 0 | 0.0 | 0.0 | 0.00 | 0.00 | 0.00 | 94 | 1011.1 |
| 20260831163512 | 12 | 0 | 0.0 | 0.0 | 0.00 | 0.00 | 0.00 | 94 | 1011.2 |
| 20260831162446 | 12 | 0 | 0.0 | 0.0 | 0.00 | 0.00 | 0.00 | 94 | 1011.3 |
| 20260831161933 | 12 | 0 | 0.0 | 0.0 | 0.00 | 0.00 | 0.00 | 94 | 1011.3 |
| 20260831161420 | 12 | 0 | 0.0 | 0.0 | 0.00 | 0.00 | 0.00 | 95 | 1011.2 |
| 20260831160907 | 12 | 0 | 0.0 | 0.0 | 0.00 | 0.00 | 0.00 | 95 | 1011.3 |
| 20260831160354 | 12 | 0 | 0.0 | 0.0 | 0.00 | 0.00 | 0.00 | 95 | 1011.3 |
| 20260831155841 | 12 | 0 | 0.0 | 0.0 | 0.00 | 0.03 | 0.00 | 95 | 1011.3 |
| 20260831154815 | 11 | 0 | 0.0 | 0.0 | 0.00 | 0.03 | 0.00 | 95 | 1011.4 |
| 20260831154302 | 11 | 0 | 0.0 | 0.0 | 0.00 | 0.03 | 0.00 | 95 | 1011.4 |
| 20260831153749 | 11 | 0 | 0.0 | 0.0 | 0.00 | 0.03 | 0.00 | 95 | 1011.4 |
| 20260831153236 | 11 | 0 | 0.0 | 0.0 | 0.00 | 0.03 | 0.00 | 95 | 1011.4 |
| 20260831152723 | 11 | 0 | 0.0 | 0.0 | 0.00 | 0.03 | 0.00 | 95 | 1011.3 |
| 20260831152210 | 11 | 0 | 0.0 | 0.0 | 0.00 | 0.03 | 0.00 | 95 | 1011.4 |
| 20260831151657 | 11 | 0 | 0.0 | 0.0 | 0.00 | 0.03 | 0.00 | 95 | 1011.4 |
| 20260831151144 | 11 | 0 | 0.0 | 0.0 | 0.00 | 0.03 | 0.00 | 95 | 1011.4 |
| 20260831150631 | 11 | 0 | 0.0 | 0.0 | 0.00 | 0.03 | 0.00 | 95 | 1011.5 |
| 20260831150117 | 11 | 0 | 0.0 | 0.0 | 0.00 | 0.03 | 0.00 | 95 | 1011.5 |
| 20260831145606 | 11 | 0 | 0.0 | 0.0 | 0.00 | 0.03 | 0.00 | 95 | 1011.5 |
| 20260831145052 | 11 | 0 | 0.0 | 0.0 | 0.00 | 0.03 | 0.00 | 95 | 1011.5 |
| 20260831144539 | 11 | 0 | 0.0 | 0.0 | 0.00 | 0.03 | 0.00 | 95 | 1011.5 |
| 20260831144025 | 11 | 0 | 0.0 | 0.0 | 0.00 | 0.03 | 0.00 | 95 | 1011.4 |
| 20260831143513 | 11 | 0 | 0.0 | 0.0 | 0.00 | 0.03 | 0.00 | 95 | 1011.3 |
| 20260831143000 | 10 | 0 | 0.0 | 0.0 | 0.00 | 0.03 | 0.00 | 96 | 1011.2 |
| 20260831141933 | 10 | 0 | 0.0 | 0.0 | 0.00 | 0.03 | 0.00 | 95 | 1011.1 |
| 20260831141420 | 10 | 0 | 0.0 | 0.0 | 0.00 | 0.03 | 0.00 | 95 | 1011.1 |
| 20260831140907 | 10 | 0 | 0.0 | 0.0 | 0.00 | 0.03 | 0.00 | 96 | 1011.0 |
| 20260831140354 | 10 | 0 | 0.0 | 0.0 | 0.00 | 0.03 | 0.00 | 96 | 1011.0 |
| 20260831135841 | 10 | 0 | 0.0 | 0.0 | 0.00 | 0.03 | 0.00 | 95 | 1010.9 |
| 20260831135329 | 10 | 0 | 0.0 | 0.0 | 0.00 | 0.03 | 0.00 | 96 | 1010.9 |
| 20260831134815 | 10 | 0 | 0.0 | 0.0 | 0.00 | 0.03 | 0.00 | 96 | 1010.8 |
| 20260831134302 | 10 | 0 | 0.0 | 0.0 | 0.00 | 0.03 | 0.00 | 95 | 1010.9 |
| 20260831133749 | 10 | 0 | 0.0 | 0.0 | 0.00 | 0.03 | 0.00 | 95 | 1010.9 |
| 20260831133236 | 10 | 0 | 0.0 | 0.0 | 0.00 | 0.03 | 0.00 | 95 | 1010.9 |
| 20260831132723 | 10 | 0 | 0.0 | 0.0 | 0.00 | 0.03 | 0.00 | 95 | 1011.0 |
| 20260831132210 | 10 | 0 | 0.0 | 0.0 | 0.00 | 0.03 | 0.00 | 95 | 1011.0 |
| 20260831131657 | 10 | 0 | 0.0 | 0.0 | 0.00 | 0.03 | 0.00 | 95 | 1011.0 |
| 20260831131144 | 10 | 0 | 0.0 | 0.0 | 0.00 | 0.03 | 0.00 | 96 | 1011.1 |
| 20260831130631 | 10 | 0 | 0.0 | 0.0 | 0.00 | 0.03 | 0.00 | 95 | 1011.1 |
| 20260831130118 | 11 | 0 | 0.0 | 0.0 | 0.00 | 0.03 | 0.00 | 95 | 1011.1 |
| 20260831125605 | 10 | 0 | 0.0 | 0.0 | 0.00 | 0.03 | 0.00 | 95 | 1011.1 |
| 20260831125052 | 11 | 0 | 0.0 | 0.0 | 0.00 | 0.03 | 0.00 | 95 | 1011.1 |
| 20260831124539 | 11 | 0 | 0.0 | 0.0 | 0.00 | 0.03 | 0.00 | 95 | 1011.2 |
| 20260831124026 | 10 | 0 | 0.0 | 0.0 | 0.00 | 0.03 | 0.00 | 95 | 1011.2 |
| 20260831123513 | 10 | 0 | 0.0 | 0.0 | 0.00 | 0.03 | 0.00 | 95 | 1011.2 |
| 20260831123000 | 10 | 0 | 0.0 | 0.0 | 0.00 | 0.03 | 0.00 | 95 | 1011.2 |
| 20260831122448 | 10 | 0 | 0.0 | 0.0 | 0.00 | 0.03 | 0.00 | 95 | 1011.2 |
| 20260831121934 | 10 | 0 | 0.0 | 0.0 | 0.00 | 0.03 | 0.00 | 95 | 1011.3 |
| 20260831121421 | 10 | 0 | 0.0 | 0.0 | 0.00 | 0.03 | 0.00 | 95 | 1011.4 |
| 20260831120908 | 10 | 0 | 0.0 | 0.0 | 0.00 | 0.03 | 0.00 | 95 | 1011.4 |
| 20260831120356 | 10 | 0 | 0.0 | 0.0 | 0.00 | 0.03 | 0.00 | 95 | 1011.4 |
| 20260831114817 | 11 | 0 | 0.0 | 0.0 | 0.00 | 0.03 | 0.00 | 94 | 1011.5 |
| 20260831114304 | 11 | 0 | 0.0 | 0.0 | 0.00 | 0.03 | 0.00 | 95 | 1011.5 |
| 20260831113750 | 11 | 0 | 0.0 | 0.0 | 0.00 | 0.03 | 0.00 | 94 | 1011.5 |
| 20260831113237 | 11 | 0 | 0.0 | 0.0 | 0.00 | 0.03 | 0.00 | 95 | 1011.5 |
| 20260831112724 | 11 | 0 | 0.0 | 0.0 | 0.00 | 0.03 | 0.00 | 94 | 1011.6 |
| 20260831112211 | 11 | 0 | 0.0 | 0.0 | 0.00 | 0.03 | 0.00 | 94 | 1011.7 |
| 20260831111658 | 11 | 0 | 0.0 | 0.0 | 0.00 | 0.03 | 0.00 | 95 | 1011.7 |
| 20260831111145 | 11 | 0 | 0.0 | 0.0 | 0.00 | 0.03 | 0.00 | 94 | 1011.6 |
| 20260831110632 | 10 | 0 | 0.0 | 0.0 | 0.00 | 0.03 | 0.00 | 94 | 1011.6 |
| 20260831110119 | 10 | 0 | 0.0 | 0.0 | 0.00 | 0.03 | 0.00 | 94 | 1011.6 |
| 20260831105606 | 10 | 0 | 0.0 | 0.0 | 0.00 | 0.03 | 0.00 | 94 | 1011.8 |
| 20260831104540 | 10 | 0 | 0.0 | 0.0 | 0.00 | 0.03 | 0.00 | 94 | 1011.6 |
| 20260831104027 | 11 | 0 | 0.0 | 0.0 | 0.00 | 0.03 | 0.00 | 94 | 1011.7 |
| 20260831103514 | 11 | 0 | 0.0 | 0.0 | 0.00 | 0.03 | 0.00 | 94 | 1011.6 |
| 20260831103001 | 11 | 0 | 0.0 | 0.0 | 0.00 | 0.03 | 0.00 | 94 | 1011.5 |
| 20260831102448 | 11 | 0 | 0.0 | 0.0 | 0.00 | 0.03 | 0.00 | 94 | 1011.5 |
| 20260831101935 | 11 | 0 | 0.0 | 0.0 | 0.00 | 0.03 | 0.00 | 94 | 1011.5 |
| 20260831101422 | 11 | 0 | 0.0 | 0.0 | 0.00 | 0.03 | 0.00 | 94 | 1011.5 |
| 20260831100909 | 11 | 0 | 0.0 | 0.0 | 0.00 | 0.03 | 0.00 | 94 | 1011.5 |
| 20260831100357 | 11 | 0 | 0.0 | 0.0 | 0.00 | 0.03 | 0.00 | 94 | 1011.6 |
| 20260831095843 | 11 | 0 | 0.0 | 0.0 | 0.00 | 0.03 | 0.00 | 94 | 1011.8 |
| 20260831094817 | 11 | 0 | 0.0 | 0.0 | 0.00 | 0.03 | 0.00 | 94 | 1011.8 |
| 20260831094304 | 11 | 0 | 0.0 | 0.0 | 0.00 | 0.03 | 0.00 | 94 | 1011.8 |
| 20260831093751 | 10 | 0 | 0.0 | 0.0 | 0.00 | 0.03 | 0.00 | 94 | 1011.9 |
| 20260831093238 | 10 | 0 | 0.0 | 0.0 | 0.00 | 0.03 | 0.00 | 94 | 1012.0 |
| 20260831092725 | 11 | 0 | 0.0 | 0.0 | 0.00 | 0.03 | 0.00 | 94 | 1012.0 |
| 20260831092212 | 11 | 0 | 0.0 | 0.0 | 0.00 | 0.03 | 0.00 | 94 | 1012.1 |
| 20260831091659 | 11 | 0 | 0.0 | 0.0 | 0.00 | 0.03 | 0.00 | 93 | 1012.1 |
| 20260831091146 | 11 | 0 | 0.0 | 0.0 | 0.00 | 0.03 | 0.00 | 93 | 1012.2 |
| 20260831090633 | 11 | 0 | 0.0 | 0.0 | 0.00 | 0.03 | 0.00 | 94 | 1012.2 |
| 20260831090120 | 11 | 0 | 0.0 | 0.0 | 0.00 | 0.03 | 0.00 | 93 | 1012.2 |
| 20260831085658 | 11 | 0 | 0.0 | 0.0 | 0.00 | 0.03 | 0.00 | 93 | 1012.3 |
| 20260831085607 | 11 | 0 | 0.0 | 0.0 | 0.00 | 0.03 | 0.00 | 93 | 1012.3 |
| 20260831084657 | 11 | 0 | 0.0 | 0.0 | 0.00 | 0.03 | 0.00 | 93 | 1012.4 |
| 20260831084541 | 11 | 0 | 0.0 | 0.0 | 0.00 | 0.03 | 0.00 | 93 | 1012.4 |
| 20260831084028 | 11 | 0 | 0.0 | 0.0 | 0.00 | 0.03 | 0.00 | 93 | 1012.4 |
| 20260831083633 | 11 | 0 | 0.0 | 0.0 | 0.00 | 0.03 | 0.00 | 93 | 1012.5 |
| 20260831083515 | 11 | 0 | 0.0 | 0.0 | 0.00 | 0.03 | 0.00 | 93 | 1012.5 |
| 20260831083002 | 11 | 0 | 0.0 | 0.0 | 0.00 | 0.03 | 0.00 | 93 | 1012.5 |
| 20260831082449 | 11 | 0 | 0.0 | 0.0 | 0.00 | 0.03 | 0.00 | 93 | 1012.5 |
| 20260831081936 | 11 | 0 | 0.0 | 0.0 | 0.00 | 0.03 | 0.00 | 93 | 1012.7 |
| 20260831081423 | 11 | 0 | 0.0 | 0.0 | 0.00 | 0.03 | 0.00 | 93 | 1012.7 |
| 20260831080910 | 11 | 0 | 0.0 | 0.0 | 0.00 | 0.03 | 0.00 | 93 | 1012.8 |
| 20260831075844 | 11 | 0 | 0.0 | 0.0 | 0.00 | 0.03 | 0.00 | 93 | 1012.9 |
| 20260831074818 | 11 | 0 | 0.0 | 0.0 | 0.00 | 0.03 | 0.03 | 93 | 1012.9 |
| 20260831074305 | 11 | 0 | 0.0 | 0.0 | 0.00 | 0.03 | 0.03 | 93 | 1013.0 |
| 20260831073752 | 11 | 0 | 0.0 | 0.0 | 0.00 | 0.03 | 0.03 | 93 | 1012.9 |
| 20260831073239 | 11 | 0 | 0.0 | 0.0 | 0.00 | 0.03 | 0.03 | 92 | 1013.1 |
| 20260831072213 | 11 | 0 | 0.0 | 0.0 | 0.00 | 0.03 | 0.03 | 92 | 1013.1 |
| 20260831071700 | 11 | 0 | 0.0 | 0.0 | 0.00 | 0.03 | 0.03 | 92 | 1013.1 |
| 20260831071147 | 11 | 0 | 0.0 | 0.0 | 0.00 | 0.03 | 0.03 | 92 | 1013.2 |
| 20260831070634 | 11 | 0 | 0.0 | 0.0 | 0.00 | 0.03 | 0.03 | 92 | 1013.1 |
| 20260831070121 | 11 | 0 | 0.0 | 0.0 | 0.00 | 0.03 | 0.03 | 92 | 1013.3 |
| 20260831065608 | 11 | 0 | 0.0 | 0.0 | 0.00 | 0.03 | 0.03 | 92 | 1013.4 |
| 20260831065055 | 11 | 0 | 0.0 | 0.0 | 0.00 | 0.03 | 0.03 | 92 | 1013.4 |
| 20260831064542 | 11 | 0 | 0.0 | 0.0 | 0.00 | 0.03 | 0.03 | 92 | 1013.5 |
| 20260831064029 | 11 | 0 | 0.0 | 0.0 | 0.00 | 0.03 | 0.03 | 92 | 1013.4 |
| 20260831063003 | 11 | 0 | 0.0 | 0.0 | 0.00 | 0.03 | 0.03 | 92 | 1013.6 |
| 20260831062450 | 11 | 0 | 0.0 | 0.0 | 0.00 | 0.03 | 0.03 | 91 | 1013.6 |
| 20260831061424 | 11 | 0 | 0.0 | 0.0 | 0.00 | 0.03 | 0.03 | 91 | 1013.7 |
| 20260831060911 | 11 | 0 | 0.0 | 0.0 | 0.00 | 0.03 | 0.03 | 91 | 1013.8 |
| 20260831060358 | 11 | 0 | 0.0 | 0.0 | 0.00 | 0.03 | 0.03 | 91 | 1013.8 |
| 20260831055845 | 11 | 0 | 0.0 | 0.0 | 0.00 | 0.03 | 0.03 | 91 | 1013.9 |
| 20260831054819 | 11 | 0 | 0.0 | 0.0 | 0.00 | 0.03 | 0.03 | 90 | 1014.0 |
| 20260831054306 | 11 | 0 | 0.0 | 0.0 | 0.00 | 0.03 | 0.03 | 90 | 1014.1 |
| 20260831053753 | 11 | 0 | 0.0 | 0.0 | 0.00 | 0.03 | 0.03 | 90 | 1014.2 |
| 20260831053240 | 12 | 0 | 0.0 | 0.0 | 0.00 | 0.03 | 0.03 | 90 | 1014.2 |
| 20260831052729 | 12 | 0 | 0.0 | 0.0 | 0.00 | 0.03 | 0.03 | 90 | 1014.3 |
| 20260831052214 | 12 | 0 | 0.0 | 0.0 | 0.00 | 0.03 | 0.03 | 90 | 1014.3 |
| 20260831051701 | 12 | 0 | 0.0 | 0.0 | 0.00 | 0.03 | 0.03 | 89 | 1014.3 |
| 20260831051148 | 12 | 0 | 0.0 | 0.0 | 0.00 | 0.03 | 0.03 | 89 | 1014.4 |
| 20260831050635 | 12 | 0 | 0.0 | 0.0 | 0.00 | 0.03 | 0.03 | 89 | 1014.4 |
| 20260831050122 | 12 | 0 | 0.0 | 0.0 | 0.00 | 0.03 | 0.03 | 89 | 1014.5 |
| 20260831045609 | 12 | 0 | 0.0 | 0.0 | 0.00 | 0.03 | 0.03 | 88 | 1014.5 |
| 20260831045056 | 12 | 0 | 0.0 | 0.0 | 0.00 | 0.03 | 0.03 | 88 | 1014.5 |
| 20260831044543 | 12 | 0 | 0.0 | 0.0 | 0.00 | 0.03 | 0.03 | 88 | 1014.5 |
| 20260831044030 | 12 | 0 | 0.0 | 0.0 | 0.00 | 0.03 | 0.03 | 87 | 1014.6 |
| 20260831043517 | 12 | 0 | 0.0 | 0.0 | 0.00 | 0.03 | 0.03 | 87 | 1014.6 |
| 20260831043004 | 12 | 0 | 0.0 | 0.0 | 0.00 | 0.03 | 0.03 | 87 | 1014.6 |
| 20260831042451 | 12 | 0 | 0.0 | 0.0 | 0.00 | 0.03 | 0.03 | 87 | 1014.7 |
| 20260831041938 | 13 | 0 | 0.0 | 0.0 | 0.00 | 0.03 | 0.03 | 86 | 1014.7 |
| 20260831041425 | 13 | 0 | 0.0 | 0.0 | 0.00 | 0.03 | 0.03 | 86 | 1014.7 |
| 20260831040912 | 13 | 0 | 0.0 | 0.0 | 0.00 | 0.03 | 0.03 | 86 | 1014.7 |
| 20260831040359 | 13 | 0 | 0.0 | 0.0 | 0.00 | 0.03 | 0.03 | 85 | 1014.8 |
| 20260831035846 | 13 | 0 | 0.0 | 0.0 | 0.00 | 0.03 | 0.03 | 85 | 1014.8 |
| 20260831035335 | 13 | 0 | 0.0 | 0.0 | 0.00 | 0.03 | 0.03 | 85 | 1014.7 |
| 20260831034820 | 14 | 0 | 0.0 | 0.0 | 0.00 | 0.03 | 0.03 | 84 | 1014.7 |
| 20260831034307 | 13 | 0 | 0.0 | 0.0 | 0.00 | 0.03 | 0.03 | 84 | 1014.7 |
| 20260831033754 | 14 | 0 | 0.0 | 0.0 | 0.00 | 0.03 | 0.03 | 84 | 1014.6 |
| 20260831033241 | 14 | 0 | 0.0 | 9.7 | 0.00 | 0.03 | 0.03 | 84 | 1014.6 |
| 20260831032728 | 14 | 0 | 0.0 | 9.7 | 0.00 | 0.03 | 0.03 | 84 | 1014.7 |
| 20260831032215 | 14 | 0 | 0.0 | 9.7 | 0.00 | 0.03 | 0.03 | 84 | 1014.7 |
| 20260831031702 | 14 | 39 | 0.0 | 11.3 | 0.00 | 0.03 | 0.03 | 83 | 1014.8 |
| 20260831031149 | 15 | 135 | 0.0 | 11.3 | 0.00 | 0.03 | 0.03 | 83 | 1014.8 |
| 20260831030636 | 15 | 0 | 0.0 | 11.3 | 0.00 | 0.03 | 0.03 | 83 | 1014.9 |
| 20260831030124 | 15 | 0 | 0.0 | 0.0 | 0.00 | 0.03 | 0.03 | 83 | 1014.9 |
| 20260831025610 | 15 | 0 | 0.0 | 0.0 | 0.00 | 0.03 | 0.03 | 83 | 1014.9 |
| 20260831024544 | 15 | 113 | 0.0 | 11.3 | 0.00 | 0.03 | 0.03 | 82 | 1014.9 |
| 20260831024031 | 15 | 15 | 3.2 | 11.3 | 0.00 | 0.03 | 0.03 | 82 | 1014.9 |
| 20260831023518 | 16 | 0 | 0.0 | 9.7 | 0.00 | 0.03 | 0.03 | 82 | 1014.9 |
| 20260831023005 | 16 | 0 | 3.2 | 17.7 | 0.00 | 0.03 | 0.03 | 82 | 1014.9 |
| 20260831022452 | 16 | 64 | 4.8 | 17.7 | 0.00 | 0.03 | 0.03 | 82 | 1014.9 |
| 20260831021939 | 16 | 0 | 4.8 | 17.7 | 0.00 | 0.03 | 0.03 | 81 | 1015.0 |
| 20260831021426 | 16 | 91 | 4.8 | 16.1 | 0.00 | 0.03 | 0.03 | 82 | 1015.1 |
| 20260831020913 | 16 | 50 | 8.0 | 24.1 | 0.00 | 0.03 | 0.03 | 81 | 1015.1 |
| 20260831020400 | 16 | 308 | 3.2 | 24.1 | 0.00 | 0.03 | 0.03 | 81 | 1015.1 |
| 20260831015846 | 16 | 100 | 4.8 | 24.1 | 0.00 | 0.03 | 0.03 | 81 | 1015.1 |
| 20260831015335 | 16 | 54 | 11.3 | 22.5 | 0.00 | 0.03 | 0.03 | 81 | 1015.2 |
| 20260831014820 | 16 | 329 | 8.0 | 22.5 | 0.00 | 0.03 | 0.03 | 81 | 1015.3 |
| 20260831013754 | 17 | 22 | 4.8 | 22.5 | 0.00 | 0.03 | 0.03 | 81 | 1015.4 |
| 20260831013241 | 17 | 161 | 4.8 | 22.5 | 0.00 | 0.03 | 0.03 | 81 | 1015.4 |
| 20260831012728 | 16 | 334 | 9.7 | 22.5 | 0.00 | 0.03 | 0.03 | 81 | 1015.5 |
| 20260831012216 | 16 | 169 | 4.8 | 25.7 | 0.00 | 0.03 | 0.03 | 81 | 1015.5 |
| 20260831011702 | 16 | 77 | 6.4 | 25.7 | 0.00 | 0.03 | 0.03 | 81 | 1015.6 |
| 20260831010636 | 17 | 70 | 1.6 | 24.1 | 0.00 | 0.03 | 0.03 | 80 | 1015.8 |
| 20260831010123 | 17 | 36 | 9.7 | 24.1 | 0.00 | 0.03 | 0.03 | 80 | 1015.9 |
| 20260831005610 | 17 | 4 | 9.7 | 24.1 | 0.00 | 0.03 | 0.03 | 80 | 1015.9 |
| 20260831005057 | 17 | 152 | 9.7 | 16.1 | 0.00 | 0.03 | 0.03 | 79 | 1016.0 |
| 20260831004544 | 17 | 26 | 11.3 | 20.9 | 0.00 | 0.03 | 0.03 | 79 | 1016.1 |
| 20260831004031 | 17 | 40 | 6.4 | 20.9 | 0.00 | 0.03 | 0.03 | 79 | 1016.2 |
| 20260831003518 | 17 | 336 | 8.0 | 20.9 | 0.00 | 0.03 | 0.03 | 79 | 1016.2 |
| 20260831003005 | 17 | 320 | 9.7 | 20.9 | 0.00 | 0.03 | 0.03 | 78 | 1016.3 |
| 20260831002452 | 17 | 60 | 11.3 | 20.9 | 0.00 | 0.03 | 0.03 | 77 | 1016.3 |
| 20260831001939 | 17 | 0 | 6.4 | 20.9 | 0.00 | 0.03 | 0.03 | 78 | 1016.3 |
| 20260831001426 | 17 | 127 | 6.4 | 17.7 | 0.00 | 0.03 | 0.03 | 78 | 1016.3 |
| 20260831000913 | 17 | 96 | 9.7 | 16.1 | 0.00 | 0.03 | 0.03 | 78 | 1016.4 |
| 20260831000402 | 17 | 285 | 12.9 | 25.7 | 0.00 | 0.03 | 0.03 | 78 | 1016.6 |
| 20260830234821 | 17 | 47 | 3.2 | 17.7 | 0.00 | 0.03 | 0.03 | 77 | 1016.6 |
| 20260830234310 | 17 | 310 | 8.0 | 22.5 | 0.00 | 0.03 | 0.03 | 76 | 1016.7 |
| 20260830233755 | 17 | 81 | 6.4 | 22.5 | 0.00 | 0.03 | 0.03 | 76 | 1016.7 |
| 20260830233242 | 17 | 135 | 11.3 | 22.5 | 0.00 | 0.03 | 0.03 | 76 | 1016.8 |
| 20260830232729 | 17 | 106 | 9.7 | 17.7 | 0.00 | 0.03 | 0.03 | 76 | 1016.9 |
| 20260830232217 | 17 | 36 | 3.2 | 27.4 | 0.00 | 0.03 | 0.03 | 77 | 1016.9 |
| 20260830231703 | 17 | 28 | 8.0 | 27.4 | 0.00 | 0.03 | 0.03 | 77 | 1017.1 |
| 20260830230637 | 17 | 357 | 8.0 | 25.7 | 0.00 | 0.03 | 0.03 | 77 | 1017.2 |
| 20260830230124 | 17 | 110 | 11.3 | 25.7 | 0.00 | 0.03 | 0.03 | 77 | 1017.2 |
| 20260830225058 | 17 | 53 | 3.2 | 24.1 | 0.00 | 0.03 | 0.03 | 77 | 1017.3 |
| 20260830224545 | 17 | 57 | 11.3 | 22.5 | 0.00 | 0.03 | 0.03 | 77 | 1017.3 |
| 20260830223519 | 17 | 40 | 8.0 | 22.5 | 0.00 | 0.03 | 0.03 | 76 | 1017.5 |
| 20260830223006 | 17 | 46 | 9.7 | 19.3 | 0.00 | 0.03 | 0.03 | 76 | 1017.6 |
| 20260830222453 | 17 | 12 | 8.0 | 22.5 | 0.00 | 0.03 | 0.03 | 76 | 1017.7 |
| 20260830221940 | 17 | 43 | 9.7 | 22.5 | 0.00 | 0.03 | 0.03 | 75 | 1017.7 |
| 20260830221427 | 18 | 109 | 1.6 | 22.5 | 0.00 | 0.03 | 0.03 | 75 | 1017.8 |
| 20260830220401 | 17 | 145 | 6.4 | 22.5 | 0.00 | 0.03 | 0.03 | 75 | 1018.0 |
| 20260830215335 | 18 | 352 | 9.7 | 17.7 | 0.00 | 0.03 | 0.03 | 75 | 1018.2 |
| 20260830214822 | 18 | 28 | 8.0 | 25.7 | 0.00 | 0.03 | 0.03 | 75 | 1018.2 |
| 20260830214310 | 17 | 47 | 11.3 | 25.7 | 0.00 | 0.03 | 0.03 | 75 | 1018.3 |
| 20260830213757 | 17 | 67 | 11.3 | 25.7 | 0.00 | 0.03 | 0.03 | 75 | 1018.3 |
| 20260830213243 | 17 | 71 | 1.6 | 19.3 | 0.00 | 0.03 | 0.03 | 76 | 1018.4 |
| 20260830212730 | 17 | 9 | 9.7 | 19.3 | 0.00 | 0.03 | 0.03 | 76 | 1018.5 |
| 20260830212217 | 17 | 357 | 4.8 | 19.3 | 0.00 | 0.03 | 0.03 | 77 | 1018.6 |
| 20260830211704 | 17 | 107 | 6.4 | 19.3 | 0.00 | 0.03 | 0.03 | 77 | 1018.6 |
| 20260830211151 | 17 | 319 | 8.0 | 19.3 | 0.00 | 0.03 | 0.03 | 78 | 1018.7 |
| 20260830210638 | 17 | 357 | 1.6 | 22.5 | 0.00 | 0.03 | 0.03 | 78 | 1018.7 |
| 20260830210125 | 17 | 40 | 8.0 | 22.5 | 0.00 | 0.03 | 0.03 | 78 | 1018.6 |
| 20260830205612 | 17 | 284 | 3.2 | 22.5 | 0.00 | 0.03 | 0.03 | 79 | 1018.7 |
| 20260830205059 | 17 | 299 | 11.3 | 22.5 | 0.00 | 0.03 | 0.03 | 79 | 1018.7 |
| 20260830204546 | 17 | 56 | 4.8 | 22.5 | 0.00 | 0.03 | 0.03 | 79 | 1018.8 |